Weather in Malokrasnoyarka

Russia / Novosibirsk Oblast     56°27′49″N   76°00′32″E
temp.,
°C
wind,
m/s
gust,
m/s
humid.,
%
clouds,
%
prec.,
mm/h
press.,
hPa
HPBL,
m
2 march, tue
tue201:00−17ne239793 0.3 101449
04:00−18ene129788 0.1 101421
07:00−19ene119986 0.1 101520
10:00−17ese119793 0.1 101648
13:00−14s229092 0.1 1015325
16:00−13ssw2288100 0.1 1015469
19:00−16ssw2396100 0.1 101440
22:00−19ssw239943 0.0 101520
3 march, wed
wed301:00−19s239966 0.0 101539
04:00−20ssw3310092 0.0 101546
07:00−21s349994 0.1 101580
10:00−20s489862 0.0 1014173
13:00−15s599467 0.0 1014343
16:00−12s61093100 0.0 1012496
19:00−13s61292100 0.1 1012526
22:00−13ssw61394100 0.4 1011550
4 march, thu
thu401:00−11s61294100 1.0 1010580
04:00−8ssw61294100 0.6 1008609
07:00−6ssw61394100 1.2 1008620
10:00−4ssw71294100 0.9 1007705
13:00−2ssw71194100 1.3 1006825
16:000ssw71194100 0.4 1005894
19:000ssw81495100 1.3 1004870
22:00−2ssw81495100 0.6 1002787
5 march, fri
fri501:00−1ssw81494100 1.8 1002851
04:00−2ssw71396100 0.4 1001653
07:00−2wsw71291100 1.9 1002732
10:00−9wsw5129381 0.0 1005392
13:00−8wsw6119185 0.0 1008500
16:00−7sw6108985 0.0 1009632
19:00−8ssw8159293 0.1 1009792
22:00−5sw81494100 0.9 10071058
6 march, sat
sat601:00−6sw91693100 1.9 1006905
04:00−4sw91691100 0.4 1006916
07:00−3sw81592100 0.6 1006978
10:00−2wsw71492100 0.8 10081214
13:00−1w7128694 1.1 10091294
16:00−1w6990100 1.4 1010920
19:00−3wsw4108898 2.3 1012395
22:00−5sw379790 0.4 1013230